This is the latest recevied weather packets stored in our database for station/object K7DC. If no packets are shown the sender has not sent any weather packets the latest 10 day(s).
| Time | Temp. | Humidity | Pressure | Rain* | Wind** | Luminosity | Snow |
|---|---|---|---|---|---|---|---|
| 1777514162 | 25.56° C | 14% | 1013.1 hPa | 0 mm | - | 3 W/m² | - |
| 1777513859 | 25.56° C | 14% | 1012.8 hPa | 0 mm | - | 4 W/m² | - |
| 1777513556 | 25.56° C | 14% | 1012.7 hPa | 0 mm | - | 7 W/m² | - |
| 1777513253 | 26.11° C | 13% | 1012.9 hPa | 0 mm | - | 10 W/m² | - |
| 1777512949 | 26.11° C | 13% | 1012.6 hPa | 0 mm | - | 11 W/m² | - |
| 1777512645 | 26.67° C | 12% | 1012.7 hPa | 0 mm | - | 17 W/m² | - |
| 1777512343 | 26.67° C | 12% | 1012.5 hPa | 0 mm | - | 27 W/m² | - |
| 1777512039 | 26.67° C | 12% | 1012.6 hPa | 0 mm | - | 38 W/m² | - |
| 1777511738 | 27.22° C | 11% | 1012.8 hPa | 0 mm | - | 41 W/m² | - |
| 1777511434 | 27.22° C | 11% | 1012.7 hPa | 0 mm | - | 40 W/m² | - |
| 1777511131 | 27.22° C | 11% | 1012.6 hPa | 0 mm | - | 39 W/m² | - |
| 1777510827 | 27.22° C | 11% | 1012.8 hPa | 0 mm | - | 41 W/m² | - |
| 1777510524 | 27.78° C | 11% | 1012.9 hPa | 0 mm | - | 62 W/m² | - |
| 1777510220 | 27.78° C | 11% | 1013.1 hPa | 0 mm | - | 70 W/m² | - |
| 1777509916 | 28.33° C | 11% | 1013.3 hPa | 0 mm | - | 69 W/m² | - |
| 1777509612 | 28.33° C | 11% | 1013.1 hPa | 0 mm | - | 78 W/m² | - |
| 1777509309 | 28.33° C | 11% | 1012.9 hPa | 0 mm | - | 145 W/m² | - |
| 1777509006 | 28.89° C | 11% | 1012.9 hPa | 0 mm | - | 117 W/m² | - |
| 1777508703 | 28.89° C | 11% | 1013.1 hPa | 0 mm | - | 138 W/m² | - |
| 1777508401 | 28.33° C | 11% | 1012.9 hPa | 0 mm | - | 153 W/m² | - |
| 1777508097 | 28.89° C | 11% | 1012.6 hPa | 0 mm | - | 144 W/m² | - |
| 1777507794 | 28.89° C | 11% | 1012.8 hPa | 0 mm | - | 156 W/m² | - |
| 1777507491 | 28.89° C | 11% | 1012.9 hPa | 0 mm | - | 139 W/m² | - |
| 1777507188 | 28.89° C | 10% | 1012.7 hPa | 0 mm | - | 153 W/m² | - |
| 1777506886 | 28.89° C | 10% | 1012.8 hPa | 0 mm | - | 239 W/m² | - |
* Rain latest hour (hover to see other rain measurements)
** Current wind speed in m/s (hover to see current wind gust speed)